sat.trackr.live / text

‹ back to catalog

STARLINK-2343

NORAD 47884 · 2021-021AA

PAYLOAD ACTIVE UNKNOWN

§ Identity

Operator
Country
US
Launch date
2021-03-14
Launch site
AFETR
Launch vehicle
Mass (kg)
RCS (m²)

Purposes: comms

External: N2YO · Heavens-Above · Gunter

§ Orbital elements

Epoch: 2026-09-20T04:00:14.822208Z

Period
94.01 min
Inclination
53.1580°
Eccentricity
0.0001460
Mean motion
15.31697309 rev/d
Perigee alt
469.7 km
Apogee alt
471.7 km
Semi-major
6,848.9 km
B*
-1.6259e-5
RAAN
95.9583°
Arg perigee
88.3670°
Mean anomaly
271.7499°
Rev number
30,585

§ Raw data

STARLINK-23431 47884U 21021AA  26263.16683822 -.00000870  00000+0 -16259-4 0  99952 47884  53.1580  95.9583 0001460  88.3670 271.7499 15.31697309305851

JSON: /api/v1/satellites/47884 · /tle

For live sub-satellite position, see the globe view (requires WebGL).

§ Visibility from observer

Set your observer location to see the next 7 days of passes ≥ 10°. The values pass through the URL so the page stays shareable.

No JS? Fill the form by hand. The geolocation button needs JavaScript.